Wind_Speed
4 4 6 6 6 7 8 9 9 7 6 5 4 4 3 3 5 6 12 9 10 9 10 8 8 9 7 6 4 6 10 10 11 15 15 12 11 16 17 20 23 18 13 19 27
4 5 6 6 8 8 9 9 8 7 5 4 4 3 3 2 6 10 8 9 10 11 11 11 10 11 8 7 7 5 7 8 14 15 15 13 13 13 14 12 13 20 11 24 29
5 6 7 8 9 10 10 9 8 6 5 3 3 3 3 1 5 7 8 9 10 10 9 12 10 9 5 10 4 4 11 11 17 15 18 19 19 18 17 21 19 16 14 13 21
6 7 8 10 11 10 10 9 7 6 4 3 2 2 2 2 2 6 8 9 9 9 13 11 9 8 7 6 8 14 7 13 15 15 17 18 15 17 17 20 21 22 26 22 11
7 7 9 10 10 10 9 7 6 5 3 3 1 1 1 3 6 8 9 10 10 11 13 11 8 8 3 7 9 10 11 14 17 15 17 15 17 18 18 17 17 18 23 33 25
7 7 8 9 10 8 6 5 4 4 3 3 2 1 2 1 10 10 10 10 11 12 12 11 9 7 5 9 9 10 11 11 11 12 14 14 17 14 14 12 12 13 17 19 26
7 7 6 7 8 7 6 4 3 3 3 3 2 2 3 4 10 11 10 10 12 12 12 11 9 11 11 9 5 13 11 12 7 9 15 17 10 9 10 7 12 11 10 14 17
7 5 5 6 7 8 6 4 3 3 3 3 3 3 5 6 10 10 11 15 12 10 11 10 11 10 12 16 13 11 8 13 12 18 11 17 14 7 7 11 13 14 14 13 12
7 6 5 5 6 7 6 4 2 2 3 4 4 3 5 9 10 10 9 10 12 10 9 11 10 10 11 14 15 4 15 15 15 7 9 12 16 11 13 16 19 17 16 16 17
9 8 7 5 3 5 5 4 3 3 4 5 6 3 6 6 12 10 9 10 12 10 14 16 9 10 8 11 11 15 17 16 16 13 18 7 16 9 12 11 13 9 9 11 16
12 10 9 6 3 2 4 3 2 3 6 8 7 9 10 9 10 11 8 10 14 14 6 10 6 4 12 9 10 15 17 19 15 14 15 8 14 6 5 6 13 12 10 14 14
15 13 12 8 5 3 3 4 2 5 8 10 10 10 10 11 10 12 6 9 9 7 8 8 8 9 14 12 13 16 17 13 18 8 14 13 21 5 10 15 23 19 18 14 21
17 16 14 11 8 6 4 5 6 7 7 8 9 10 13 10 9 8 12 10 8 6 6 8 9 13 11 10 14 12 10 20 15 9 9 10 3 6 10 18 24 25 18 19 20
21 19 18 15 13 10 7 5 5 5 6 11 6 8 6 6 6 7 8 8 3 6 7 3 10 10 9 8 15 13 18 15 9 8 10 10 3 4 11 25 28 20 22 17 16
24 22 20 19 16 12 9 6 4 5 4 7 11 6 5 4 5 4 8 7 5 7 7 4 11 8 7 10 11 15 19 15 14 6 7 14 5 1 20 29 30 23 22 15 12
27 25 23 20 17 13 9 7 8 4 7 10 8 6 4 1 3 6 9 7 5 6 3 5 9 4 8 9 9 18 19 6 10 3 2 14 5 7 25 28 30 23 20 15 6
30 28 26 23 20 15 12 10 9 8 6 8 11 8 4 7 4 4 2 3 3 5 3 6 8 11 5 9 7 14 20 6 3 2 2 12 4 5 20 25 26 28 20 14 5
33 32 29 27 22 18 16 17 12 7 16 11 11 8 5 6 5 4 2 4 9 3 6 3 4 2 8 7 9 9 13 4 2 3 5 7 4 8 15 20 24 22 20 15 9
37 34 34 28 27 24 21 24 12 17 17 17 11 10 10 10 5 2 4 6 6 6 1 3 3 8 5 6 7 5 10 6 3 7 4 4 7 11 16 15 18 19 16 14 11
39 39 38 34 29 29 30 33 22 19 14 14 14 8 12 11 7 5 7 6 5 4 3 3 4 6 10 4 5 8 8 3 2 3 5 4 8 11 17 17 13 14 10 11 12
43 42 43 36 32 36 42 41 28 21 19 20 17 10 12 14 10 8 6 6 5 4 4 6 3 2 7 1 2 3 3 2 5 2 2 4 5 11 16 14 12 12 15 10 6
47 46 41 42 39 45 48 42 32 24 25 23 19 18 14 15 12 11 8 10 4 3 1 6 6 6 4 9 6 4 4 1 2 4 6 10 2 12 15 13 14 11 13 14 9
54 48 42 41 48 51 45 43 30 29 32 26 24 21 20 18 11 14 16 10 7 3 2 3 2 5 5 3 1 2 4 7 2 5 8 3 2 8 12 9 13 11 8 11 11
54 45 50 47 51 38 48 42 37 36 33 28 24 25 20 20 19 11 16 12 9 6 3 5 8 10 10 5 5 8 8 10 6 4 10 4 6 5 12 11 9 6 11 7 7
51 53 42 49 58 50 34 32 35 38 41 34 31 29 25 21 20 21 17 14 12 9 5 6 7 6 15 17 16 15 15 13 17 15 8 7 7 8 14 11 5 4 3 6 8
55 61 48 35 33 53 49 50 38 43 43 42 38 32 28 24 20 17 20 17 13 10 9 7 5 9 14 6 9 14 13 13 14 15 16 14 9 9 12 8 5 0 3 4 7
57 58 50 40 32 29 53 57 46 35 41 38 33 31 28 24 22 21 14 13 14 10 10 8 4 4 5 5 9 12 8 10 13 13 10 11 10 9 9 7 6 3 3 3 4
Wind_Direction
291 308 308 315 312 307 322 322 330 322 320 312 319 331 340 360 359 16 22 8 6 2 0 346 359 1 344 331 291 243 238 258 282 286 284 266 266 262 270 270 244 233 281 304 269
299 295 298 301 306 317 314 317 311 314 310 304 329 334 358 338 356 37 3 6 5 2 353 10 360 348 357 333 320 280 256 271 288 278 274 262 256 256 257 268 275 252 272 286 283
289 301 303 309 308 316 309 301 307 310 304 316 318 349 9 334 323 11 353 353 357 359 0 17 6 356 357 338 356 296 281 281 276 282 274 260 251 247 265 260 251 240 236 284 286
285 296 306 312 317 312 307 302 307 300 296 286 305 13 25 56 130 334 336 337 345 352 20 13 22 329 317 320 304 296 297 289 298 294 283 280 273 264 254 257 249 237 229 224 255
292 306 317 314 321 319 308 302 299 292 280 265 275 329 340 12 338 320 324 332 339 2 15 12 10 334 316 286 309 304 296 275 289 299 300 304 291 285 273 266 265 263 244 227 224
279 303 316 324 330 325 329 322 303 284 262 247 244 243 112 25 299 311 319 331 349 357 1 14 8 356 3 312 312 314 324 0 345 318 308 305 300 284 299 268 269 260 257 251 236
279 306 314 334 330 345 1 354 308 270 248 238 235 233 240 253 296 311 315 337 345 349 354 6 9 11 6 8 335 2 355 335 315 313 317 306 335 333 328 291 266 279 271 280 252
277 298 300 325 346 2 6 349 303 266 240 231 231 251 267 303 307 310 325 341 346 348 349 5 7 18 28 4 333 338 312 335 332 312 323 325 327 310 305 292 266 270 263 239 246
263 264 264 312 354 14 10 354 308 276 234 231 238 237 276 307 310 313 321 334 340 343 357 11 25 40 25 338 353 216 340 332 328 323 309 301 304 311 284 272 273 270 253 249 249
251 247 247 278 345 14 10 3 320 265 226 233 233 245 247 266 317 300 316 324 336 352 9 350 357 336 320 343 344 328 329 319 317 304 308 356 327 314 317 352 341 292 258 252 250
247 238 244 248 292 355 356 348 3 262 247 239 236 223 251 286 308 309 306 332 347 355 335 316 312 309 315 319 326 319 312 307 310 301 316 317 336 2 3 284 305 300 279 236 222
250 237 233 239 250 283 317 310 320 263 274 247 253 244 262 292 312 318 305 324 296 304 279 301 284 273 323 345 330 320 317 311 310 299 301 305 310 208 351 327 330 308 273 260 231
244 247 235 233 244 252 270 292 282 263 259 273 246 251 277 291 294 237 285 301 305 286 270 281 285 299 332 345 324 336 328 323 313 322 308 324 93 224 343 333 338 322 320 258 239
240 241 243 242 244 248 259 265 281 253 243 255 246 258 274 284 293 298 298 311 351 294 287 262 248 304 331 337 317 326 310 335 339 333 331 342 294 207 336 339 342 339 329 317 259
235 240 242 243 246 245 245 246 239 197 275 215 231 238 274 270 302 338 319 323 292 225 274 264 293 295 335 307 326 318 340 319 315 315 322 358 333 47 328 345 351 344 338 322 294
237 237 240 240 237 236 232 219 187 197 243 205 217 217 244 250 301 310 348 6 339 314 285 282 316 289 330 339 350 333 340 294 301 268 262 15 0 333 353 346 351 356 351 348 292
235 237 236 238 235 226 216 198 187 229 220 234 218 212 201 243 279 327 285 293 334 344 312 279 285 315 336 13 308 358 17 1 0 9 43 359 25 344 355 351 354 4 2 11 32
231 235 235 232 233 225 208 194 229 226 214 224 206 206 192 227 223 289 42 286 322 311 310 293 262 256 327 354 3 25 24 63 267 340 300 315 1 2 17 357 353 6 8 17 55
234 230 231 230 228 225 214 204 213 237 230 228 212 217 220 217 221 275 216 220 273 322 204 326 270 289 304 345 18 16 4 15 267 275 282 187 65 70 344 354 8 10 28 37 63
233 235 227 225 228 224 221 219 222 246 227 231 217 213 205 218 207 189 228 256 294 315 289 276 300 248 318 330 24 34 29 357 318 5 305 37 68 6 347 356 18 28 39 54 72
230 234 229 224 221 226 223 224 216 246 242 238 225 225 197 204 193 212 209 252 260 339 319 230 231 267 343 246 258 356 39 6 311 245 306 318 63 355 351 12 24 32 42 58 78
226 228 229 225 221 225 228 224 216 243 230 232 225 206 213 208 214 201 215 231 257 321 318 255 234 243 220 263 266 251 228 38 2 335 299 272 77 340 356 5 18 20 62 86 89
223 221 219 223 227 225 229 228 215 236 231 232 226 225 219 217 203 214 214 234 244 268 303 286 236 286 219 250 235 178 256 297 282 289 284 316 131 344 342 353 6 16 52 99 105
222 220 220 218 225 224 227 224 218 225 229 226 227 225 223 217 214 211 220 225 236 254 266 277 237 230 277 294 260 253 261 267 246 254 324 26 51 349 321 329 6 9 27 99 90
208 217 222 218 221 221 208 220 214 217 222 224 221 226 224 215 220 221 223 223 234 246 249 267 273 258 273 267 262 263 265 254 241 241 256 270 313 315 293 307 354 33 63 93 108
225 208 212 221 230 227 214 209 218 223 224 220 223 224 221 225 231 232 229 230 232 221 223 254 266 295 299 302 270 268 257 250 251 238 239 269 303 267 294 290 290 67 115 122 124
223 226 210 216 210 227 223 218 211 219 230 227 230 225 221 227 228 234 224 216 234 236 236 245 245 300 288 316 307 279 263 265 260 242 234 229 247 260 297 281 266 236 199 174 155
Height
3150 3149 3148 3147 3146 3147 3145 3145 3143 3142 3141 3141 3140 3140 3139 3137 3136 3135 3134 3134 3133 3131 3130 3128 3127 3126 3126 3126 3127 3127 3128 3127 3129 3129 3126 3126 3126 3126 3125 3123 3124 3125 3126 3116 3110
3148 3148 3148 3147 3146 3144 3144 3143 3142 3141 3141 3141 3139 3139 3138 3137 3136 3135 3136 3134 3132 3131 3129 3127 3126 3125 3125 3125 3125 3126 3127 3127 3128 3124 3122 3121 3122 3122 3121 3121 3122 3123 3127 3121 3120
3148 3147 3147 3145 3145 3143 3142 3142 3140 3140 3139 3139 3139 3138 3137 3137 3136 3136 3135 3134 3133 3131 3129 3127 3126 3126 3125 3124 3125 3125 3125 3125 3123 3121 3119 3118 3118 3118 3117 3116 3118 3120 3123 3118 3111
3147 3147 3146 3145 3143 3141 3141 3140 3138 3138 3138 3138 3138 3137 3137 3136 3139 3135 3135 3134 3132 3131 3128 3127 3126 3126 3126 3126 3126 3123 3122 3123 3120 3119 3117 3115 3115 3114 3114 3114 3115 3115 3116 3118 3120
3146 3145 3144 3144 3141 3140 3139 3137 3137 3137 3137 3137 3137 3137 3137 3136 3136 3135 3135 3133 3132 3130 3129 3127 3126 3125 3125 3125 3124 3122 3121 3119 3117 3116 3115 3113 3112 3111 3109 3109 3110 3111 3112 3113 3115
3145 3144 3143 3141 3139 3138 3137 3136 3136 3136 3136 3136 3137 3137 3137 3138 3136 3135 3134 3133 3131 3129 3128 3127 3125 3124 3122 3122 3122 3121 3119 3116 3115 3115 3114 3112 3109 3109 3107 3107 3107 3107 3108 3108 3109
3143 3142 3142 3140 3139 3136 3135 3134 3135 3135 3135 3136 3136 3137 3137 3137 3135 3134 3133 3132 3130 3129 3127 3126 3125 3124 3122 3120 3120 3119 3116 3115 3116 3115 3112 3109 3108 3107 3105 3105 3106 3105 3106 3106 3105
3142 3141 3141 3141 3139 3135 3133 3134 3134 3134 3135 3136 3136 3136 3136 3135 3134 3133 3131 3129 3129 3128 3127 3126 3125 3125 3121 3121 3119 3117 3117 3117 3117 3113 3111 3109 3106 3106 3105 3104 3103 3102 3102 3102 3104
3140 3139 3140 3140 3138 3135 3134 3134 3134 3134 3134 3135 3136 3135 3136 3134 3133 3131 3131 3130 3129 3128 3126 3125 3125 3123 3122 3121 3118 3119 3117 3116 3114 3111 3109 3108 3105 3104 3100 3098 3096 3096 3096 3096 3098
3138 3138 3138 3139 3137 3136 3135 3134 3133 3133 3134 3134 3135 3137 3135 3134 3131 3130 3130 3129 3127 3126 3124 3125 3123 3122 3123 3121 3121 3118 3116 3115 3112 3109 3107 3105 3103 3100 3097 3095 3093 3092 3091 3091 3093
3136 3136 3137 3137 3136 3136 3135 3134 3136 3135 3133 3133 3133 3133 3132 3132 3131 3129 3128 3127 3125 3125 3126 3126 3125 3124 3122 3121 3119 3117 3115 3112 3109 3106 3105 3104 3101 3100 3096 3093 3090 3087 3085 3084 3084
3134 3134 3134 3135 3135 3135 3134 3133 3132 3134 3132 3131 3131 3131 3131 3130 3129 3127 3127 3128 3126 3125 3126 3126 3123 3121 3120 3118 3118 3115 3112 3109 3106 3105 3104 3102 3100 3096 3095 3090 3086 3082 3080 3079 3077
3131 3133 3132 3132 3133 3133 3133 3133 3132 3131 3131 3129 3129 3129 3128 3129 3128 3128 3126 3125 3124 3123 3124 3122 3123 3120 3118 3117 3115 3113 3109 3106 3104 3101 3100 3101 3098 3097 3095 3089 3084 3078 3074 3072 3072
3127 3128 3130 3131 3133 3131 3132 3131 3131 3131 3131 3129 3127 3127 3127 3126 3125 3124 3123 3124 3122 3122 3121 3120 3119 3118 3116 3116 3113 3110 3108 3105 3103 3103 3102 3100 3098 3096 3093 3087 3081 3075 3069 3065 3063
3121 3124 3126 3128 3128 3128 3130 3129 3129 3130 3130 3126 3123 3125 3124 3125 3124 3122 3121 3120 3119 3120 3120 3119 3117 3116 3115 3114 3111 3109 3105 3103 3102 3102 3102 3099 3097 3094 3089 3085 3077 3071 3065 3061 3059
3116 3118 3121 3123 3124 3126 3126 3127 3128 3132 3124 3121 3121 3121 3122 3122 3121 3120 3119 3118 3117 3117 3116 3116 3115 3115 3114 3112 3110 3108 3102 3100 3100 3100 3101 3098 3098 3093 3089 3085 3077 3070 3065 3059 3057
3109 3112 3115 3118 3120 3121 3123 3125 3128 3124 3119 3118 3117 3119 3120 3121 3120 3120 3119 3119 3118 3117 3116 3116 3114 3113 3113 3111 3110 3108 3103 3102 3102 3100 3099 3097 3096 3095 3091 3085 3078 3070 3064 3060 3058
3100 3104 3108 3112 3116 3118 3119 3122 3120 3113 3114 3113 3115 3117 3118 3119 3119 3119 3118 3119 3116 3116 3115 3115 3114 3113 3112 3111 3109 3108 3108 3109 3113 3107 3101 3097 3096 3095 3090 3085 3080 3075 3067 3063 3061
3092 3094 3099 3105 3109 3112 3114 3112 3109 3110 3109 3111 3113 3114 3116 3116 3118 3117 3118 3117 3116 3114 3115 3114 3113 3112 3111 3110 3111 3109 3108 3109 3108 3104 3103 3095 3096 3095 3092 3087 3082 3077 3072 3068 3066
3083 3085 3088 3095 3101 3104 3104 3100 3103 3106 3105 3106 3109 3110 3112 3112 3115 3115 3116 3114 3113 3113 3112 3113 3113 3111 3111 3110 3110 3109 3109 3109 3108 3110 3103 3094 3095 3097 3091 3087 3084 3081 3076 3073 3072
3071 3073 3080 3087 3092 3092 3087 3091 3099 3099 3101 3103 3105 3107 3109 3108 3111 3112 3113 3113 3111 3110 3110 3110 3112 3111 3111 3110 3109 3109 3108 3108 3107 3107 3106 3101 3101 3098 3092 3088 3086 3083 3080 3078 3077
3058 3061 3067 3076 3079 3075 3075 3084 3092 3091 3094 3097 3100 3102 3104 3105 3107 3109 3110 3109 3109 3108 3108 3109 3109 3108 3108 3107 3107 3107 3108 3107 3106 3107 3104 3101 3102 3098 3094 3091 3088 3086 3083 3084 3080
3040 3050 3057 3064 3060 3062 3070 3076 3083 3084 3087 3091 3094 3096 3098 3100 3105 3104 3105 3106 3106 3106 3106 3107 3107 3107 3106 3107 3105 3104 3106 3105 3104 3105 3102 3101 3101 3097 3095 3094 3091 3088 3087 3086 3086
3030 3038 3041 3046 3048 3057 3063 3066 3072 3076 3081 3085 3088 3090 3093 3096 3098 3099 3100 3102 3103 3104 3103 3105 3104 3104 3103 3103 3103 3103 3103 3104 3103 3102 3100 3100 3100 3098 3095 3093 3093 3091 3089 3088 3087
3006 3016 3025 3026 3032 3046 3056 3062 3064 3065 3071 3076 3078 3082 3087 3090 3091 3094 3096 3098 3099 3100 3100 3102 3101 3102 3100 3098 3098 3096 3097 3098 3099 3098 3099 3098 3098 3099 3094 3092 3093 3092 3091 3090 3090
2994 3006 3017 3022 3029 3038 3045 3045 3051 3056 3061 3063 3069 3077 3081 3083 3086 3088 3091 3093 3095 3096 3097 3098 3098 3098 3094 3093 3094 3092 3091 3092 3093 3093 3093 3095 3095 3095 3093 3092 3092 3092 3093 3092 3092
2984 2992 3005 3011 3020 3025 3023 3036 3044 3053 3054 3060 3067 3071 3074 3080 3081 3084 3087 3089 3090 3093 3094 3094 3095 3097 3095 3093 3092 3090 3086 3087 3088 3089 3091 3092 3092 3092 3091 3091 3091 3091 3092 3093 3093